ANA721 RJNT-RJGG

Flight info

Callsign ANA721
Flight time 0h 31m
Altitude 20000
Route KMC25 V52 MINOU CHESS
Aircraft B789/H-SDE1E2E3FGHIJ2J3J4J5M1RWXY/LB1D1

Departure

Time 2026-05-06 21:18
Airport Toyama Kitokito Airport (RJNT)

Arrival

Time 2026-05-06 21:49
Airport Chubu Centrair International Airport (RJGG)
Time Latitude Longitude Altitude Speed Heading
2026-05-06 20:40 36.64467 137.18850 95 ft 0 kts 136°
2026-05-06 21:08 36.64483 137.18829 93 ft 4 kts 130°
2026-05-06 21:09 36.64501 137.18808 95 ft 3 kts 156°
2026-05-06 21:09 36.64521 137.18799 95 ft 4 kts 171°
2026-05-06 21:09 36.64546 137.18799 94 ft 4 kts 193°
2026-05-06 21:09 36.64564 137.18804 94 ft 0 kts 193°
2026-05-06 21:13 36.64560 137.18803 95 ft 3 kts 193°
2026-05-06 21:13 36.64538 137.18785 99 ft 4 kts 228°
2026-05-06 21:14 36.64533 137.18771 98 ft 0 kts 252°
2026-05-06 21:14 36.64533 137.18770 98 ft 2 kts 252°
2026-05-06 21:14 36.64536 137.18706 96 ft 12 kts 291°
2026-05-06 21:14 36.64616 137.18676 94 ft 14 kts 11°
2026-05-06 21:15 36.64718 137.18705 93 ft 17 kts 13°
2026-05-06 21:15 36.64836 137.18740 94 ft 18 kts 13°
2026-05-06 21:15 36.64968 137.18779 95 ft 20 kts 13°
2026-05-06 21:15 36.65109 137.18822 96 ft 21 kts 13°
2026-05-06 21:16 36.65271 137.18870 98 ft 27 kts 13°
2026-05-06 21:16 36.65464 137.18928 98 ft 29 kts 13°
2026-05-06 21:16 36.65600 137.18980 99 ft 17 kts 36°
2026-05-06 21:16 36.65677 137.19029 96 ft 6 kts 337°
2026-05-06 21:17 36.65685 137.19002 99 ft 4 kts 263°
2026-05-06 21:17 36.65672 137.18989 99 ft 3 kts 194°
2026-05-06 21:17 36.65621 137.18974 98 ft 12 kts 193°
2026-05-06 21:17 36.65392 137.18907 99 ft 70 kts 193°
2026-05-06 21:18 36.64631 137.18680 96 ft 152 kts 193°
2026-05-06 21:18 36.63544 137.18371 741 ft 156 kts 188°
2026-05-06 21:18 36.62479 137.17961 1186 ft 168 kts 210°
2026-05-06 21:18 36.61721 137.16813 1618 ft 181 kts 243°
2026-05-06 21:19 36.61089 137.15391 2046 ft 193 kts 236°
2026-05-06 21:19 36.60142 137.14166 2491 ft 202 kts 217°
2026-05-06 21:19 36.58946 137.13146 2925 ft 213 kts 212°
2026-05-06 21:19 36.57696 137.12072 3359 ft 223 kts 216°
2026-05-06 21:20 36.56479 137.10857 3938 ft 224 kts 217°
2026-05-06 21:20 36.55670 137.10029 4373 ft 222 kts 216°
2026-05-06 21:20 36.53993 137.08443 5003 ft 240 kts 214°
2026-05-06 21:20 36.52606 137.07184 5617 ft 254 kts 214°
2026-05-06 21:21 36.51176 137.05854 6456 ft 258 kts 218°
2026-05-06 21:21 36.49750 137.04464 7232 ft 264 kts 219°
2026-05-06 21:21 36.48278 137.03048 8000 ft 269 kts 218°
2026-05-06 21:21 36.46784 137.01645 8898 ft 271 kts 218°
2026-05-06 21:22 36.45277 137.00229 9754 ft 272 kts 218°
2026-05-06 21:22 36.43757 136.98794 10461 ft 279 kts 218°
2026-05-06 21:22 36.42168 136.97292 10916 ft 295 kts 218°
2026-05-06 21:22 36.40490 136.95707 11365 ft 311 kts 218°
2026-05-06 21:23 36.39900 136.95152 11507 ft 317 kts 218°
2026-05-06 21:23 36.36865 136.92296 12201 ft 342 kts 218°
2026-05-06 21:23 36.34947 136.90494 12818 ft 349 kts 218°
2026-05-06 21:23 36.33007 136.88668 13613 ft 352 kts 218°
2026-05-06 21:24 36.31050 136.86822 14224 ft 355 kts 219°
2026-05-06 21:24 36.29073 136.84963 14865 ft 359 kts 218°
2026-05-06 21:24 36.27068 136.83088 15521 ft 363 kts 218°
2026-05-06 21:24 36.25041 136.81188 16170 ft 367 kts 219°
2026-05-06 21:25 36.22990 136.79260 16761 ft 372 kts 219°
2026-05-06 21:25 36.20913 136.77314 17380 ft 377 kts 219°
2026-05-06 21:25 36.18810 136.75348 17917 ft 381 kts 219°
2026-05-06 21:25 36.16682 136.73360 18543 ft 385 kts 219°
2026-05-06 21:26 36.14538 136.71353 19090 ft 388 kts 219°
2026-05-06 21:26 36.12368 136.69324 19557 ft 393 kts 219°
2026-05-06 21:26 36.10171 136.67273 19894 ft 400 kts 219°
2026-05-06 21:26 36.07946 136.65201 20043 ft 400 kts 219°
2026-05-06 21:27 36.05715 136.63145 20068 ft 400 kts 217°
2026-05-06 21:27 36.03238 136.61553 20069 ft 402 kts 205°
2026-05-06 21:27 36.01471 136.60847 20052 ft 407 kts 197°
2026-05-06 21:27 35.98659 136.60373 20059 ft 410 kts 185°
2026-05-06 21:28 35.95802 136.60638 20063 ft 415 kts 173°
2026-05-06 21:28 35.93025 136.61636 20076 ft 417 kts 162°
2026-05-06 21:28 35.90300 136.62890 20079 ft 420 kts 162°
2026-05-06 21:28 35.87563 136.64142 20085 ft 419 kts 163°
2026-05-06 21:29 35.84823 136.65374 20092 ft 419 kts 163°
2026-05-06 21:29 35.82083 136.66603 20082 ft 419 kts 163°
2026-05-06 21:29 35.79350 136.67840 20087 ft 419 kts 162°
2026-05-06 21:29 35.76618 136.69077 20083 ft 419 kts 163°
2026-05-06 21:30 35.73883 136.70306 20077 ft 418 kts 163°
2026-05-06 21:30 35.71147 136.71518 20082 ft 417 kts 164°
2026-05-06 21:30 35.68321 136.72190 20062 ft 412 kts 178°
2026-05-06 21:30 35.65476 136.72071 20065 ft 408 kts 191°
2026-05-06 21:31 35.62748 136.71197 20066 ft 405 kts 203°
2026-05-06 21:31 35.60253 136.69627 20059 ft 402 kts 214°
2026-05-06 21:31 35.57930 136.67718 20083 ft 402 kts 216°
2026-05-06 21:31 35.55606 136.65806 20078 ft 402 kts 215°
2026-05-06 21:32 35.53311 136.63942 20084 ft 402 kts 215°
2026-05-06 21:32 35.48613 136.60135 20077 ft 401 kts 215°
2026-05-06 21:32 35.46321 136.58270 20080 ft 400 kts 215°
2026-05-06 21:33 35.43999 136.56385 20079 ft 401 kts 215°
2026-05-06 21:33 35.41671 136.54500 20078 ft 402 kts 215°
2026-05-06 21:33 35.39338 136.52611 20082 ft 403 kts 215°
2026-05-06 21:33 35.36980 136.50749 20073 ft 402 kts 212°
2026-05-06 21:34 35.34375 136.49444 20061 ft 406 kts 198°
2026-05-06 21:34 35.31585 136.48880 20063 ft 410 kts 185°
2026-05-06 21:34 35.28727 136.49038 20074 ft 412 kts 177°
2026-05-06 21:34 35.25863 136.49350 20079 ft 413 kts 177°
2026-05-06 21:35 35.23003 136.49646 20081 ft 413 kts 178°
2026-05-06 21:35 35.20136 136.49930 20072 ft 414 kts 177°
2026-05-06 21:35 35.17258 136.50219 19902 ft 417 kts 177°
2026-05-06 21:35 35.14350 136.50519 19189 ft 418 kts 177°
2026-05-06 21:36 35.11464 136.50818 18487 ft 415 kts 177°
2026-05-06 21:36 35.08606 136.51110 17742 ft 411 kts 177°
2026-05-06 21:36 35.05771 136.51397 17052 ft 405 kts 178°
2026-05-06 21:36 35.02983 136.51679 16377 ft 399 kts 178°
2026-05-06 21:37 35.00237 136.51960 15741 ft 393 kts 178°
2026-05-06 21:37 34.97537 136.52235 15133 ft 386 kts 178°
2026-05-06 21:37 34.94880 136.52504 14541 ft 380 kts 178°
2026-05-06 21:37 34.92264 136.52770 13949 ft 374 kts 178°
2026-05-06 21:38 34.89690 136.53030 13319 ft 368 kts 178°
2026-05-06 21:38 34.87164 136.53287 12729 ft 356 kts 178°
2026-05-06 21:38 34.84744 136.53534 12171 ft 346 kts 178°
2026-05-06 21:38 34.82369 136.53774 11643 ft 340 kts 178°
2026-05-06 21:39 34.80033 136.54009 11127 ft 334 kts 178°
2026-05-06 21:39 34.77738 136.54242 10766 ft 325 kts 178°
2026-05-06 21:39 34.75541 136.54467 10626 ft 309 kts 178°
2026-05-06 21:39 34.73475 136.54848 10441 ft 296 kts 165°
2026-05-06 21:40 34.71689 136.56017 10140 ft 292 kts 145°
2026-05-06 21:40 34.70336 136.57849 9797 ft 290 kts 129°
2026-05-06 21:40 34.69173 136.59818 9469 ft 284 kts 129°
2026-05-06 21:40 34.68043 136.61746 9180 ft 274 kts 129°
2026-05-06 21:41 34.66927 136.63616 8906 ft 275 kts 129°
2026-05-06 21:41 34.65792 136.65501 8580 ft 274 kts 129°
2026-05-06 21:41 34.64696 136.67337 8292 ft 262 kts 129°
2026-05-06 21:41 34.63634 136.69116 8000 ft 268 kts 129°
2026-05-06 21:42 34.62520 136.70971 7385 ft 274 kts 128°
2026-05-06 21:42 34.61388 136.72860 6594 ft 280 kts 128°
2026-05-06 21:42 34.60266 136.74739 5767 ft 271 kts 128°
2026-05-06 21:42 34.59156 136.76593 4918 ft 275 kts 127°
2026-05-06 21:43 34.58132 136.78622 3922 ft 291 kts 110°
2026-05-06 21:43 34.57960 136.81037 3183 ft 295 kts 83°
2026-05-06 21:43 34.58511 136.83369 2818 ft 280 kts 58°
2026-05-06 21:43 34.59769 136.84984 2922 ft 253 kts 38°
2026-05-06 21:44 34.61290 136.85877 2957 ft 235 kts 15°
2026-05-06 21:44 34.62878 136.86072 2897 ft 226 kts 356°
2026-05-06 21:44 34.64412 136.85721 2816 ft 225 kts 346°
2026-05-06 21:44 34.65933 136.85309 2775 ft 223 kts 347°
2026-05-06 21:45 34.67453 136.84940 2757 ft 223 kts 348°
2026-05-06 21:45 34.68982 136.84582 2746 ft 224 kts 348°
2026-05-06 21:45 34.70516 136.84217 2741 ft 225 kts 348°
2026-05-06 21:45 34.72032 136.83852 2471 ft 216 kts 348°
2026-05-06 21:46 34.73432 136.83515 2175 ft 196 kts 348°
2026-05-06 21:46 34.74732 136.83201 1911 ft 185 kts 349°
2026-05-06 21:46 34.75960 136.82907 1686 ft 174 kts 349°
2026-05-06 21:46 34.77114 136.82640 1453 ft 164 kts 348°
2026-05-06 21:47 34.78203 136.82377 1239 ft 154 kts 348°
2026-05-06 21:47 34.79215 136.82135 1038 ft 142 kts 349°
2026-05-06 21:47 34.80159 136.81907 853 ft 134 kts 348°
2026-05-06 21:47 34.81064 136.81686 689 ft 132 kts 348°
2026-05-06 21:48 34.81968 136.81471 524 ft 133 kts 349°
2026-05-06 21:48 34.82879 136.81252 334 ft 133 kts 348°
2026-05-06 21:48 34.83774 136.81029 155 ft 131 kts 347°
2026-05-06 21:48 34.84666 136.80816 39 ft 127 kts 349°
2026-05-06 21:49 34.85367 136.80649 29 ft 64 kts 349°
2026-05-06 21:49 34.85729 136.80563 28 ft 42 kts 349°
2026-05-06 21:49 34.86012 136.80495 29 ft 42 kts 351°
2026-05-06 21:49 34.86267 136.80542 33 ft 22 kts 19°
2026-05-06 21:50 34.86327 136.80614 33 ft 7 kts 93°
2026-05-06 21:50 34.86301 136.80664 34 ft 7 kts 147°
2026-05-06 21:50 34.86248 136.80684 34 ft 9 kts 168°
2026-05-06 21:50 34.86180 136.80701 34 ft 11 kts 168°
2026-05-06 21:51 34.86098 136.80721 33 ft 13 kts 168°
2026-05-06 21:51 34.86030 136.80737 33 ft 0 kts 168°
2026-05-06 21:52 34.86026 136.80738 33 ft 4 kts 168°
2026-05-06 21:52 34.85988 136.80747 32 ft 7 kts 169°
2026-05-06 21:52 34.85934 136.80760 33 ft 9 kts 169°
2026-05-06 21:53 34.85862 136.80777 33 ft 13 kts 169°
2026-05-06 21:53 34.85763 136.80801 33 ft 16 kts 169°
2026-05-06 21:53 34.85650 136.80828 33 ft 17 kts 169°
2026-05-06 21:53 34.85570 136.80894 33 ft 12 kts 94°
2026-05-06 21:54 34.85583 136.81001 34 ft 13 kts 79°
2026-05-06 21:54 34.85601 136.81117 34 ft 15 kts 79°
2026-05-06 21:54 34.85615 136.81200 34 ft 7 kts 78°
2026-05-06 21:54 34.85636 136.81255 34 ft 7 kts 38°
2026-05-06 21:55 34.85670 136.81259 34 ft 4 kts 341°
2026-05-06 21:55 34.85686 136.81239 34 ft 3 kts 296°
2026-05-06 21:55 34.85688 136.81207 34 ft 4 kts 267°
2026-05-06 21:55 34.85683 136.81165 34 ft 6 kts 259°
2026-05-06 21:56 34.85678 136.81136 34 ft 4 kts 260°
2026-05-06 21:56 34.85683 136.81122 34 ft 2 kts 308°
2026-05-06 21:56 34.85703 136.81111 34 ft 5 kts 343°
2026-05-06 21:56 34.85736 136.81100 34 ft 5 kts 346°
2026-05-06 21:57 34.85751 136.81095 34 ft 1 kts 346°
2026-05-06 21:57 34.85752 136.81095 34 ft 0 kts 346°